FW7008 Weather Reports


time (UTC)temp
F
wind
direction
speed
knots
gust
knots
rain 1hr
in
rain 24hr
in
rain mn
in
humidity
%
barometer
mb
20260902092612 63 72 0.0 0.0 0.00 0.00 0.00 92 1016.6
20260902092108 63 73 0.0 0.0 0.00 0.00 0.00 92 1016.2
20260902091603 63 75 0.0 0.0 0.00 0.00 0.00 92 1016.2
20260902091059 63 75 0.0 0.0 0.00 0.00 0.00 92 1016.2
20260902090555 64 78 0.0 0.0 0.00 0.00 0.00 92 1016.2
20260902090053 63 70 0.0 0.0 0.00 0.00 0.00 93 1016.2
20260902085548 63 69 0.0 0.0 0.00 0.00 0.00 93 1016.2
20260902085043 63 69 0.0 0.0 0.00 0.00 0.00 92 1016.2
20260902084539 63 69 0.0 0.0 0.00 0.00 0.00 92 1016.2
20260902084035 63 69 0.0 0.0 0.00 0.00 0.00 92 1016.2
20260902083525 64 65 0.0 0.0 0.00 0.00 0.00 92 1016.2
20260902083024 64 65 0.0 0.0 0.00 0.00 0.00 92 1016.2
20260902082520 64 69 0.0 0.0 0.00 0.00 0.00 92 1016.6
20260902082017 64 69 0.0 0.0 0.00 0.00 0.00 91 1016.6
20260902081513 64 67 0.0 0.0 0.00 0.00 0.00 91 1016.2
20260902081013 64 70 0.0 0.0 0.00 0.00 0.00 91 1016.2
20260902080509 64 70 0.0 0.0 0.00 0.00 0.00 91 1016.2
20260902080004 64 78 0.0 0.0 0.00 0.00 0.00 91 1016.2
20260902075459 64 81 0.0 0.0 0.00 0.00 0.00 91 1016.2
20260902074955 64 82 0.0 0.0 0.00 0.00 0.00 90 1016.2
20260902074450 64 83 0.0 0.0 0.00 0.00 0.00 90 1016.6
20260902073950 65 84 0.0 0.0 0.00 0.00 0.00 90 1016.2
20260902073446 65 86 0.0 0.0 0.00 0.00 0.00 90 1016.2
20260902072942 65 86 0.0 0.0 0.00 0.00 0.00 90 1015.9
20260902072438 64 84 0.0 0.0 0.00 0.00 0.00 90 1015.9
20260902071934 65 84 0.0 0.0 0.00 0.00 0.00 90 1015.9
20260902071433 65 84 0.0 0.0 0.00 0.00 0.00 90 1015.9
20260902070930 65 85 0.0 0.0 0.00 0.00 0.00 90 1015.9
20260902070425 65 85 0.0 0.0 0.00 0.00 0.00 89 1015.6
20260902065923 65 86 0.0 0.0 0.00 0.00 0.00 89 1015.6
20260902065419 65 89 0.0 0.0 0.00 0.00 0.00 88 1015.9
20260902064914 65 91 0.0 0.0 0.00 0.00 0.00 88 1015.6
20260902064410 66 98 0.0 0.0 0.00 0.00 0.00 88 1015.6
20260902063906 66 99 0.0 0.0 0.00 0.00 0.00 88 1015.9
20260902063405 66 100 0.0 0.0 0.00 0.00 0.00 87 1015.9
20260902062901 66 100 0.0 0.0 0.00 0.00 0.00 88 1015.9
20260902062359 66 98 0.0 0.0 0.00 0.00 0.00 87 1015.9
20260902061859 66 104 0.0 0.0 0.00 0.00 0.00 87 1015.9
20260902061354 66 95 0.0 0.0 0.00 0.00 0.00 87 1015.9
20260902060851 67 100 0.0 0.0 0.00 0.00 0.00 87 1015.6
20260902060346 67 100 0.0 0.0 0.00 0.00 0.00 87 1015.6
20260902055842 67 118 0.0 0.0 0.00 0.00 0.00 87 1015.9
20260902055338 67 88 0.0 0.0 0.00 0.00 0.00 87 1015.6
20260902054833 67 91 0.0 0.0 0.00 0.00 0.00 87 1015.6
20260902054329 67 95 0.0 0.0 0.00 0.00 0.00 86 1015.6
20260902053824 68 98 0.0 0.0 0.00 0.00 0.00 86 1015.6
20260902053319 68 103 0.0 0.0 0.00 0.00 0.00 86 1015.6
20260902052818 68 120 0.0 0.0 0.00 0.00 0.00 86 1015.6
20260902052313 68 168 0.0 0.0 0.00 0.00 0.00 85 1015.6
20260902051808 68 214 0.0 0.0 0.00 0.00 0.00 85 1015.6
20260902051308 68 176 0.0 0.0 0.00 0.00 0.00 85 1015.6
20260902050802 69 199 0.0 0.0 0.00 0.00 0.00 84 1015.6
20260902050257 69 220 0.0 0.0 0.00 0.00 0.00 84 1015.6
20260902045757 69 174 0.0 0.0 0.00 0.00 0.00 83 1015.6
20260902045253 69 239 1.7 5.2 0.00 0.00 0.00 82 1015.6
20260902044749 69 240 0.0 0.0 0.00 0.00 0.00 81 1015.6
20260902044244 69 246 0.0 0.0 0.00 0.00 0.00 80 1015.6
20260902043739 69 254 0.0 0.0 0.00 0.00 0.00 81 1015.6
20260902043235 69 237 0.0 0.0 0.00 0.00 0.00 82 1015.6
20260902042734 69 236 2.6 4.3 0.00 0.00 0.00 82 1015.2
20260902042229 69 254 0.0 0.0 0.00 0.00 0.00 81 1015.2
20260902041724 69 230 0.0 0.0 0.00 0.00 0.00 80 1015.2
20260902041218 69 219 0.0 0.0 0.00 0.00 0.00 80 1014.9
20260902040718 69 253 0.0 0.0 0.00 0.00 0.00 81 1014.9
20260902040214 69 236 0.0 0.0 0.00 0.00 0.00 81 1014.9
20260902035712 69 236 0.0 0.0 0.00 0.00 0.00 81 1014.9
20260902035208 68 211 0.0 0.0 0.00 0.00 0.00 81 1014.9
20260902034707 69 252 0.0 0.0 0.00 0.00 0.00 83 1014.6
20260902034206 69 213 0.0 0.0 0.00 0.00 0.00 83 1014.9
20260902033705 69 239 0.0 0.0 0.00 0.00 0.00 83 1014.6
20260902033201 69 271 0.0 0.0 0.00 0.00 0.00 83 1014.6
20260902032659 69 213 0.0 0.0 0.00 0.00 0.00 84 1014.2
20260902032154 69 239 0.0 0.0 0.00 0.00 0.00 83 1013.9
20260902031648 69 218 0.0 0.0 0.00 0.00 0.00 83 1014.6
20260902031144 69 220 0.0 0.0 0.00 0.00 0.00 83 1014.2
20260902030640 68 210 0.0 0.0 0.00 0.00 0.00 84 1014.6
20260902030139 68 256 0.0 0.0 0.00 0.00 0.00 85 1014.2
20260902025638 68 232 0.0 0.0 0.00 0.00 0.00 85 1014.2
20260902025134 69 222 0.0 0.0 0.00 0.00 0.00 86 1014.2
20260902024629 69 205 0.0 0.0 0.00 0.00 0.00 87 1014.2
20260902024130 69 196 0.0 0.0 0.00 0.00 0.00 87 1014.2
20260902023625 69 225 0.0 0.0 0.00 0.00 0.00 85 1014.2
20260902023120 69 239 0.0 0.9 0.00 0.00 0.00 85 1013.9
20260902022620 69 184 0.0 0.0 0.00 0.00 0.00 85 1013.9
20260902022116 69 207 0.0 0.0 0.00 0.00 0.00 84 1013.9
20260902021611 69 286 0.0 0.0 0.00 0.00 0.00 84 1013.9
20260902021106 70 241 0.0 1.7 0.00 0.00 0.00 83 1014.2
20260902020602 70 213 2.6 2.6 0.00 0.00 0.00 83 1014.2
20260902020057 70 213 3.5 4.3 0.00 0.00 0.00 83 1014.2
20260902015553 70 200 5.2 6.1 0.00 0.00 0.00 82 1014.2
20260902015048 70 246 7.0 9.6 0.00 0.00 0.00 82 1014.2
20260902014544 70 243 4.3 6.1 0.00 0.00 0.00 82 1014.2
20260902014039 71 224 2.6 2.6 0.00 0.00 0.00 81 1013.9
20260902013539 71 262 5.2 7.8 0.00 0.00 0.00 82 1014.2
20260902013035 71 234 5.2 6.1 0.00 0.00 0.00 82 1013.9
20260902012530 72 224 5.2 6.1 0.00 0.00 0.00 81 1013.9
20260902012025 72 207 3.5 5.2 0.00 0.00 0.00 81 1014.2
20260902011520 72 220 4.3 5.2 0.00 0.00 0.00 81 1014.2
20260902011015 72 195 4.3 6.1 0.00 0.00 0.00 81 1014.2
20260902010514 72 198 4.3 5.2 0.00 0.00 0.00 81 1014.2
20260902010010 72 273 3.5 5.2 0.00 0.00 0.00 80 1014.2
20260902005508 72 246 4.3 6.1 0.00 0.00 0.00 80 1014.6
20260902005005 72 205 5.2 7.0 0.00 0.00 0.00 80 1014.2
20260902004504 72 190 7.0 7.8 0.00 0.00 0.00 80 1014.6
20260902003959 72 148 0.0 0.0 0.00 0.00 0.00 80 1014.6
20260902003454 72 268 9.6 13.9 0.00 0.00 0.00 81 1014.2
20260902002949 72 233 7.0 8.7 0.00 0.00 0.00 80 1014.6
20260902002445 72 265 10.4 12.2 0.00 0.00 0.00 80 1014.2
20260902001944 72 248 6.1 9.6 0.00 0.00 0.00 80 1014.6
20260902001439 73 235 7.0 9.6 0.00 0.00 0.00 80 1014.2
20260902000934 72 225 4.3 8.7 0.00 0.00 0.00 80 1014.6
20260902000429 73 205 6.1 9.6 0.00 0.00 0.00 80 1014.2
20260901235924 73 248 10.4 13.0 0.00 0.00 0.00 79 1014.6
20260901235419 73 259 7.0 7.8 0.00 0.00 0.00 79 1014.6
20260901234914 73 252 6.1 7.0 0.00 0.00 0.00 79 1014.6
20260901234408 74 231 9.6 11.3 0.00 0.00 0.00 78 1014.2
20260901233902 74 231 3.5 5.2 0.00 0.00 0.00 78 1014.6
20260901233358 73 227 5.2 7.8 0.00 0.00 0.00 80 1014.6
20260901232854 72 242 4.3 7.8 0.00 0.00 0.00 81 1014.9
20260901232349 73 187 7.0 9.6 0.00 0.00 0.00 79 1014.9
20260901231845 73 258 7.8 13.9 0.00 0.00 0.00 78 1014.9
20260901231340 73 233 5.2 7.8 0.00 0.00 0.00 79 1014.9
20260901230837 75 259 7.0 7.8 0.00 0.00 0.00 77 1014.9
20260901230336 74 257 9.6 11.3 0.00 0.00 0.00 76 1014.9
20260901225832 74 261 8.7 11.3 0.00 0.00 0.00 75 1014.6
20260901225331 75 245 10.4 14.8 0.00 0.00 0.00 74 1014.9
20260901224826 75 243 7.8 11.3 0.00 0.00 0.00 75 1014.6
20260901224323 74 237 11.3 13.9 0.00 0.00 0.00 78 1014.9
20260901223819 74 220 8.7 11.3 0.00 0.00 0.00 78 1014.9
20260901223314 74 282 7.8 9.6 0.00 0.00 0.00 78 1014.9
20260901222809 74 247 7.0 8.7 0.00 0.00 0.00 77 1014.9
20260901222306 75 257 9.6 13.0 0.00 0.00 0.00 76 1014.9
20260901221801 75 208 5.2 7.0 0.00 0.00 0.00 77 1014.9
20260901221256 75 245 6.1 7.8 0.00 0.00 0.00 76 1014.9
20260901220750 74 231 5.2 7.0 0.00 0.00 0.00 79 1014.9
20260901220244 74 248 12.2 14.8 0.00 0.00 0.00 78 1015.2
20260901215743 74 209 6.1 9.6 0.00 0.00 0.00 77 1014.9
20260901215242 75 246 7.0 7.8 0.00 0.00 0.00 75 1015.2
20260901214741 76 246 9.6 13.0 0.00 0.00 0.00 73 1015.2
20260901214240 75 235 9.6 12.2 0.00 0.00 0.00 76 1015.2
20260901213735 75 290 7.0 8.7 0.00 0.00 0.00 76 1015.2
20260901213235 75 231 4.3 7.0 0.00 0.00 0.00 75 1015.2
20260901212735 75 189 6.1 7.8 0.00 0.00 0.00 75 1015.6
20260901212231 74 258 8.7 11.3 0.00 0.00 0.00 78 1015.6
20260901211725 75 254 10.4 13.0 0.00 0.00 0.00 76 1015.6
20260901211222 75 270 8.7 12.2 0.00 0.00 0.00 75 1015.2
20260901210718 75 228 6.1 7.0 0.00 0.00 0.00 77 1015.2
20260901210213 75 211 6.1 7.8 0.00 0.00 0.00 77 1015.6
20260901205709 76 220 7.8 9.6 0.00 0.00 0.00 77 1015.2
20260901205204 76 206 6.1 7.8 0.00 0.00 0.00 74 1015.6
20260901204700 75 232 6.1 7.8 0.00 0.00 0.00 75 1015.6
20260901204154 75 244 8.7 11.3 0.00 0.00 0.00 76 1015.6
20260901203654 75 266 8.7 13.0 0.00 0.00 0.00 75 1015.6
20260901203149 75 220 7.8 11.3 0.00 0.00 0.00 75 1015.6
20260901202648 75 246 7.0 12.2 0.00 0.00 0.00 76 1015.6
20260901202144 75 241 6.1 7.8 0.00 0.00 0.00 75 1015.6
20260901201641 76 232 7.0 8.7 0.00 0.00 0.00 74 1015.6
20260901201140 77 163 5.2 7.0 0.00 0.00 0.00 72 1015.9
20260901200640 76 233 2.6 6.1 0.00 0.00 0.00 73 1015.9
20260901200135 77 242 8.7 12.2 0.00 0.00 0.00 72 1015.6
20260901195632 76 270 7.8 9.6 0.00 0.00 0.00 73 1015.9
20260901195132 75 258 7.8 9.6 0.00 0.00 0.00 74 1015.9
20260901194628 76 248 4.3 6.1 0.00 0.00 0.00 73 1015.9
20260901194123 76 258 6.1 7.8 0.00 0.00 0.00 72 1015.9
20260901193619 77 268 8.7 9.6 0.00 0.00 0.00 73 1015.9
20260901193113 75 227 6.1 8.7 0.00 0.00 0.00 74 1015.9
20260901192608 77 269 5.2 7.0 0.00 0.00 0.00 74 1015.9
20260901192103 76 178 2.6 4.3 0.00 0.00 0.00 74 1015.9
20260901191559 78 278 6.1 8.7 0.00 0.00 0.00 72 1015.9
20260901191055 77 233 4.3 7.0 0.00 0.00 0.00 72 1015.9
20260901190550 77 238 4.3 6.1 0.00 0.00 0.00 72 1016.2
20260901190050 76 232 4.3 5.2 0.00 0.00 0.00 73 1016.2
20260901185548 77 234 5.2 7.0 0.00 0.00 0.00 72 1016.2
20260901185047 76 285 7.0 8.7 0.00 0.00 0.00 73 1015.9
20260901184543 76 272 4.3 6.1 0.00 0.00 0.00 73 1015.9
20260901184038 75 177 0.0 0.0 0.00 0.00 0.00 75 1016.2
20260901183538 76 172 1.7 2.6 0.00 0.00 0.00 74 1016.6
20260901183033 75 230 3.5 6.1 0.00 0.00 0.00 75 1016.6
20260901182529 77 264 3.5 5.2 0.00 0.00 0.00 72 1016.2
20260901182024 76 252 2.6 5.2 0.00 0.00 0.00 73 1016.2
20260901181523 76 254 0.0 0.0 0.00 0.00 0.00 73 1016.2
20260901181023 75 267 0.0 0.0 0.00 0.00 0.00 76 1016.2
20260901180521 75 310 0.0 0.0 0.00 0.00 0.00 77 1016.2
20260901180016 74 197 0.0 0.9 0.00 0.00 0.00 77 1016.2
20260901175510 75 276 5.2 7.0 0.00 0.00 0.00 76 1016.6
20260901175005 75 289 4.3 5.2 0.00 0.00 0.00 76 1016.6
20260901174501 75 139 0.0 0.0 0.00 0.00 0.00 75 1016.6
20260901173956 75 279 0.0 0.0 0.00 0.00 0.00 74 1016.6
20260901173451 75 124 0.0 0.0 0.00 0.00 0.00 76 1016.6
20260901172947 75 74 0.0 0.0 0.00 0.00 0.00 75 1016.6
20260901172443 75 69 0.0 0.0 0.00 0.00 0.00 75 1015.9
20260901171941 74 53 0.0 0.0 0.00 0.00 0.00 76 1016.2
20260901171439 74 110 0.0 0.0 0.00 0.00 0.00 78 1016.2
20260901170938 73 28 0.0 0.0 0.00 0.00 0.00 78 1016.2
20260901170433 73 16 0.0 0.0 0.00 0.00 0.00 79 1015.9
20260901165932 73 150 0.0 0.0 0.00 0.00 0.00 78 1016.2
20260901165427 73 25 0.0 0.0 0.00 0.00 0.00 80 1016.2
20260901164918 73 61 0.0 0.0 0.00 0.00 0.00 81 1016.2
20260901164418 71 35 0.0 0.0 0.00 0.00 0.00 83 1016.2
20260901163913 71 92 0.0 0.0 0.00 0.00 0.00 82 1016.2
20260901163408 71 139 0.0 0.0 0.00 0.00 0.00 83 1016.2
20260901162902 71 77 0.0 0.0 0.00 0.00 0.00 84 1016.2
20260901162402 71 74 0.0 0.0 0.00 0.00 0.00 84 1016.2
20260901161901 71 62 0.0 0.0 0.00 0.00 0.00 85 1016.2
20260901161356 70 40 0.0 0.0 0.00 0.00 0.00 85 1016.2
20260901160856 70 70 0.0 0.0 0.00 0.00 0.00 86 1015.9
20260901160353 69 111 0.0 0.0 0.00 0.00 0.00 87 1016.2
20260901155851 69 123 0.0 0.0 0.00 0.00 0.00 87 1015.9
20260901155346 70 160 0.0 0.0 0.00 0.00 0.00 87 1016.2
20260901154843 69 94 0.0 0.0 0.00 0.00 0.00 88 1015.9
20260901154342 69 298 0.0 0.0 0.00 0.00 0.00 89 1016.2
20260901153837 69 286 0.0 0.0 0.00 0.00 0.00 89 1015.9
20260901153332 69 265 0.0 0.0 0.00 0.00 0.00 89 1015.9
20260901152830 69 233 0.0 0.0 0.00 0.00 0.00 90 1015.9
20260901152329 68 229 0.0 0.0 0.00 0.00 0.00 90 1016.2
20260901151820 68 208 0.0 0.0 0.00 0.00 0.00 90 1015.9
20260901151319 68 156 0.0 0.0 0.00 0.00 0.00 90 1015.9
20260901150814 68 240 0.0 0.0 0.00 0.00 0.00 90 1015.9
20260901150312 69 255 0.0 0.0 0.00 0.00 0.00 89 1015.9
20260901145809 69 191 0.0 0.0 0.00 0.00 0.00 89 1015.9
20260901145306 69 83 0.0 0.0 0.00 0.00 0.00 89 1015.6
20260901144758 68 89 0.0 0.0 0.00 0.00 0.00 90 1015.9
20260901144255 68 153 0.0 0.0 0.00 0.00 0.00 90 1015.6
20260901143750 68 133 0.0 0.0 0.00 0.00 0.00 90 1015.6
20260901143246 68 65 0.0 0.0 0.00 0.00 0.00 92 1015.2
20260901142742 67 74 0.0 0.0 0.00 0.00 0.00 92 1015.2
20260901142240 67 80 0.0 0.0 0.00 0.00 0.00 93 1015.2
20260901141731 66 79 0.0 0.0 0.00 0.00 0.00 94 1015.2
20260901141231 65 79 0.0 0.0 0.00 0.00 0.00 96 1015.2
20260901140729 65 74 0.0 0.0 0.00 0.00 0.00 96 1015.2
20260901140228 64 74 0.0 0.0 0.00 0.00 0.00 97 1015.2
20260901135718 64 84 0.0 0.0 0.00 0.00 0.00 97 1015.2
20260901135217 64 82 0.0 0.0 0.00 0.00 0.00 98 1014.9
20260901134713 63 72 0.0 0.0 0.00 0.00 0.00 98 1014.9
20260901134209 63 73 0.0 0.0 0.00 0.00 0.00 98 1015.2
20260901133708 63 77 0.0 0.0 0.00 0.00 0.00 98 1014.9
20260901133208 63 80 0.0 0.0 0.00 0.00 0.00 98 1014.9
20260901132706 62 84 0.0 0.0 0.00 0.00 0.00 98 1014.9
20260901132206 62 62 0.0 0.0 0.00 0.00 0.00 98 1014.9
20260901131701 62 61 0.0 0.0 0.00 0.00 0.00 98 1014.9
20260901131201 61 61 0.0 0.0 0.00 0.00 0.00 98 1014.9
20260901130655 62 61 0.0 0.0 0.00 0.00 0.00 98 1014.9
20260901130154 62 61 0.0 0.0 0.00 0.00 0.00 98 1014.6
20260901125653 62 61 0.0 0.0 0.00 0.00 0.00 98 1014.9
20260901125148 62 61 0.0 0.0 0.00 0.00 0.00 97 1014.6
20260901124643 62 61 0.0 0.0 0.00 0.00 0.00 97 1014.9
20260901124137 62 61 0.0 0.0 0.00 0.00 0.00 97 1014.9
20260901123631 62 61 0.0 0.0 0.00 0.00 0.00 97 1014.9
20260901123131 62 61 0.0 0.0 0.00 0.00 0.00 97 1014.9
20260901122629 62 61 0.0 0.0 0.00 0.00 0.00 97 1014.6
20260901122124 62 61 0.0 0.0 0.00 0.00 0.00 97 1014.9
20260901121620 62 61 0.0 0.0 0.00 0.00 0.00 97 1014.6
20260901121115 62 61 0.0 0.0 0.00 0.00 0.00 97 1014.6
20260901120614 62 61 0.0 0.0 0.00 0.00 0.00 97 1014.6
20260901120110 63 61 0.0 0.0 0.00 0.00 0.00 97 1014.6
20260901115604 63 61 0.0 0.0 0.00 0.00 0.00 97 1014.6
20260901115056 63 61 0.0 0.0 0.00 0.00 0.00 97 1014.6
20260901114552 62 61 0.0 0.0 0.00 0.00 0.00 97 1014.2
20260901114051 63 61 0.0 0.0 0.00 0.00 0.00 97 1014.6
20260901113549 63 64 0.0 0.0 0.00 0.00 0.00 97 1014.6
20260901113045 63 65 0.0 0.0 0.00 0.00 0.00 97 1014.6
20260901112539 62 68 0.0 0.0 0.00 0.00 0.00 97 1014.6
20260901112034 63 70 0.0 0.0 0.00 0.00 0.00 96 1014.6
20260901111533 63 70 0.0 0.0 0.00 0.00 0.00 96 1014.6
20260901111031 63 69 0.0 0.0 0.00 0.00 0.00 96 1014.6
20260901110527 63 70 0.0 0.0 0.00 0.00 0.00 96 1014.9
20260901110023 63 72 0.0 0.0 0.00 0.00 0.00 96 1014.6
20260901105520 63 73 0.0 0.0 0.00 0.00 0.00 96 1014.9
20260901105018 64 72 0.0 0.0 0.00 0.00 0.00 96 1014.9
20260901104515 63 72 0.0 0.0 0.00 0.00 0.00 96 1014.9
20260901104009 63 73 0.0 0.0 0.00 0.00 0.00 96 1014.9
20260901103504 64 73 0.0 0.0 0.00 0.00 0.00 96 1014.9
20260901103000 64 79 0.0 0.0 0.00 0.00 0.00 95 1014.9
20260901102454 64 82 0.0 0.0 0.00 0.00 0.00 95 1014.9
20260901101949 64 84 0.0 0.0 0.00 0.00 0.00 95 1014.6
20260901101443 64 91 0.0 0.0 0.00 0.00 0.00 95 1014.6
20260901100938 64 92 0.0 0.0 0.00 0.00 0.00 95 1014.9
20260901100432 64 102 0.0 0.0 0.00 0.00 0.00 95 1014.9
20260901095926 65 116 0.0 0.0 0.00 0.00 0.00 95 1014.9
20260901095425 64 133 0.0 0.0 0.00 0.00 0.00 95 1014.9
20260901094923 65 162 0.0 0.0 0.00 0.00 0.00 95 1014.6
20260901094424 65 177 0.0 0.0 0.00 0.00 0.00 95 1014.9
20260901093924 65 198 0.0 0.0 0.00 0.00 0.00 95 1014.9
20260901093424 65 225 0.0 0.0 0.00 0.00 0.00 95 1014.6